Back to catalog

THOR ABLESTAR DEB

AliveVLEO
NORAD 660·DEBRIS·🇺🇸 United States

Launched Jun 29, 1961 from Cape Canaveral Space Force Station

Loading…

Next Passes (next 24 hours)

TLE

FreshSource: Space-Track

Epoch: Sep 14, 2026, 09:53 UTC

1 00660U 61015HM  26257.41234694  .00036129  00000-0  13805-2 0  9990
2 00660  66.4829 254.6096 0006700 192.7590 167.3387 15.26429881399021

Track THOR ABLESTAR DEB in real time with AllMySat

Download on the App Store